EUTELSAT 48D

Last updated on Dec. 5, 2020, 6:14 a.m. UTC

1 33460U 08065B   20339.76063605  .00000140  00000-0  00000-0 0  9990
2 33460   0.0784 110.3902 0003133 134.5086 151.0799  1.00269726 43697
UTC
Height (km)
Latitude
Longitude
Inclination
Orbital Period
UTC large
Height (km)
Speed (km/s)
/
Latitude / Longitude
Inclination (degrees)
Orbital Period (minutes)
Azimuth
Elevation
Range (km)
Doppler Factor
iOS Compass Heading
iOS Angle

Next 30 passes for location: Hong Kong

Rise time Rise Azimuth (degrees) Set time Set Azimuth (degrees) Duration Max altitude (degrees)

No matching passes for this satellites